DW9167 Weather Reports


Display with metric or nautical units.
time (UTC)temp
F
wind
direction
speed
MPH
gust
MPH
rain 1hr
in
rain 24hr
in
rain mn
in
humidity
%
barometer
mb
20260509064206 70 180 0.0 0.0 0.00 0.00 0.00 82 1003.5
20260509063206 70 180 0.0 0.0 0.00 0.00 0.00 83 1003.8
20260509061207 70 135 0.0 0.0 0.00 0.00 0.00 87 1003.2
20260509060206 71 157 0.0 0.0 0.00 0.00 0.00 90 1003.5
20260509055206 71 171 1.0 5.0 0.00 0.00 0.00 91 1003.5
20260509054207 71 180 0.0 2.0 0.00 0.00 0.00 92 1003.2
20260509053306 70 178 3.0 5.0 0.00 0.00 0.00 93 1002.8
20260509052323 71 164 1.0 5.0 0.00 0.00 0.00 94 1002.5
20260509050306 71 180 0.0 0.0 0.00 0.00 0.00 95 1002.8
20260509045405 71 180 0.0 1.0 0.00 0.00 0.00 96 1002.8
20260509044504 71 180 0.0 0.0 0.00 0.00 0.00 97 1002.8
20260509043603 72 180 0.0 2.0 0.00 0.00 0.00 97 1002.8
20260509042605 72 180 0.0 1.0 0.00 0.00 0.00 97 1002.8
20260509035604 72 180 0.0 2.0 0.00 0.00 0.00 97 1002.8
20260509034603 73 180 0.0 2.0 0.00 0.00 0.00 97 1002.8
20260509033604 73 180 0.0 0.0 0.00 0.00 0.00 97 1002.8
20260509032605 72 180 0.0 0.0 0.00 0.00 0.00 97 1002.8
20260509031704 71 180 0.0 0.0 0.00 0.00 0.00 96 1002.8
20260509024705 72 180 0.0 0.0 0.00 0.00 0.00 97 1002.4
20260509023705 72 180 0.0 0.0 0.00 0.00 0.00 96 1002.4
20260509022703 72 180 0.0 0.0 0.00 0.00 0.00 95 1002.1
20260509022604 73 180 0.0 0.0 0.00 0.00 0.00 96 1002.1
20260509021604 73 180 0.0 0.0 0.00 0.00 0.00 96 1002.1
20260509020602 72 180 0.0 0.0 0.00 0.00 0.00 94 1002.1
20260509015605 74 135 0.0 0.0 0.00 0.00 0.00 94 1001.4
20260509013604 74 135 0.0 1.0 0.00 0.00 0.00 92 1001.4
20260509012604 74 135 0.0 0.0 0.00 0.00 0.00 92 1001.4
20260509011606 75 135 0.0 0.0 0.00 0.00 0.00 91 1001.4
20260509010604 75 172 0.0 2.0 0.00 0.00 0.00 91 1001.4
20260509005603 75 180 0.0 0.0 0.00 0.00 0.00 89 1001.4
20260509004604 75 180 0.0 2.0 0.00 0.00 0.00 89 1001.1
20260509003702 75 200 0.0 1.0 0.00 0.00 0.00 88 1001.1
20260509002705 75 135 1.0 2.0 0.00 0.00 0.00 87 1001.4
20260509001703 76 169 0.0 4.0 0.00 0.00 0.00 87 1001.4
20260509000720 76 138 0.0 3.0 0.00 0.00 0.00 86 1001.1
20260508235803 77 180 0.0 5.0 0.00 0.00 0.00 85 1001.1
20260508234802 77 180 1.0 3.0 0.00 0.00 0.00 83 1001.1
20260508232904 78 164 0.0 1.0 0.00 0.00 0.00 82 1001.1
20260508232003 78 135 0.0 3.0 0.00 0.00 0.00 81 1001.1
20260508231004 78 180 0.0 2.0 0.00 0.00 0.00 81 1001.1
20260508230003 78 180 0.0 0.0 0.00 0.00 0.00 81 1001.4
20260508225103 78 180 0.0 0.0 0.00 0.00 0.00 79 1001.1
20260508224120 78 180 0.0 2.0 0.00 0.00 0.00 78 1001.1
20260508221105 80 150 0.0 2.0 0.00 0.00 0.00 75 1001.1
20260508220119 80 135 0.0 2.0 0.00 0.00 0.00 74 1001.1
20260508215203 81 180 0.0 0.0 0.00 0.00 0.00 72 1000.7
20260508214204 81 130 0.0 1.0 0.00 0.00 0.00 72 1001.4
20260508213205 79 180 3.0 5.0 0.00 0.00 0.00 75 1001.4
20260508212205 80 180 1.0 3.0 0.00 0.00 0.00 74 1001.4
20260508211205 79 270 0.0 0.0 0.00 0.00 0.00 76 1001.7
20260508210303 80 179 3.0 6.0 0.00 0.00 0.00 74 1002.0
20260508205306 79 175 0.0 3.0 0.00 0.00 0.00 75 1002.1
20260508203302 80 159 1.0 3.0 0.00 0.00 0.00 72 1001.7
20260508202307 81 135 1.0 2.0 0.00 0.00 0.00 71 1001.7
20260508201304 80 180 0.0 0.0 0.00 0.00 0.00 72 1002.0
20260508200304 81 112 0.0 0.0 0.00 0.00 0.00 72 1002.4
20260508194306 78 180 0.0 0.0 0.00 0.00 0.00 76 1002.8
20260508191403 78 339 0.0 2.0 0.00 0.00 0.00 74 1003.2
20260508190502 78 174 2.0 5.0 0.00 0.00 0.00 74 1002.8
20260508190405 78 175 2.0 6.0 0.00 0.00 0.00 74 1002.8
20260508185405 77 112 0.0 0.0 0.00 0.00 0.00 73 1003.1
20260508184503 79 126 0.0 5.0 0.00 0.00 0.00 73 1003.2
20260508182504 77 135 0.0 0.0 0.00 0.00 0.00 74 1003.8
20260508180604 77 157 0.0 0.0 0.00 0.00 0.00 76 1004.2
20260508175605 77 135 1.0 3.0 0.00 0.00 0.00 75 1004.2
20260508174604 77 157 0.0 0.0 0.00 0.00 0.00 73 1004.2
20260508173619 78 112 0.0 0.0 0.00 0.00 0.00 71 1004.5
20260508172603 78 360 0.0 0.0 0.00 0.00 0.00 71 1004.2
20260508171605 77 22 0.0 0.0 0.00 0.00 0.00 72 1004.2
20260508170604 75 360 0.0 0.0 0.00 0.00 0.00 73 1004.9
20260508165702 74 8 1.0 4.0 0.00 0.00 0.00 74 1004.9
20260508165603 74 322 0.0 4.0 0.00 0.00 0.00 75 1004.9
20260508164603 74 292 3.0 5.0 0.00 0.00 0.00 73 1004.9
20260508163604 73 278 0.0 2.0 0.00 0.00 0.00 76 1005.2
20260508162702 72 337 0.0 0.0 0.00 0.00 0.00 80 1005.6
20260508161702 71 360 0.0 1.0 0.00 0.00 0.00 81 1005.9
20260508160706 70 180 0.0 0.0 0.00 0.00 0.00 82 1006.2
20260508155704 70 180 0.0 0.0 0.00 0.00 0.00 82 1006.2
20260508154803 69 180 0.0 0.0 0.00 0.00 0.00 82 1006.2
20260508153803 68 180 0.0 0.0 0.00 0.00 0.00 82 1006.2
20260508152803 68 180 2.0 3.0 0.00 0.00 0.00 83 1006.2
20260508150802 67 180 1.0 3.0 0.00 0.00 0.00 85 1006.9
20260508143002 65 360 0.0 0.0 0.00 0.00 0.00 89 1006.9
20260508142005 64 360 0.0 0.0 0.00 0.00 0.00 90 1006.9
20260508141103 64 360 0.0 0.0 0.00 0.00 0.00 90 1007.3
20260508140105 63 339 0.0 2.0 0.00 0.00 0.00 90 1007.6
20260508135202 62 315 0.0 0.0 0.00 0.00 0.00 88 1007.6
20260508134204 63 315 0.0 0.0 0.00 0.00 0.00 89 1008.0
20260508133202 62 315 0.0 0.0 0.00 0.00 0.00 88 1007.6
20260508130204 62 45 1.0 2.0 0.00 0.00 0.00 90 1007.6
20260508124303 61 22 0.0 0.0 0.00 0.00 0.00 90 1007.9
20260508123306 61 45 0.0 1.0 0.00 0.00 0.00 90 1008.0
20260508122306 61 45 1.0 3.0 0.00 0.00 0.00 90 1008.3
20260508121303 60 22 1.0 3.0 0.00 0.00 0.00 89 1008.3
20260508120323 60 45 2.0 3.0 0.00 0.00 0.00 89 1008.7
20260508114324 61 32 2.0 4.0 0.00 0.00 0.00 90 1008.6
20260508113323 61 337 0.0 2.0 0.00 0.00 0.00 90 1008.7
20260508111321 61 22 0.0 0.0 0.00 0.00 0.00 90 1008.5
20260508110323 61 67 0.0 0.0 0.00 0.00 0.00 90 1008.3
20260508105323 61 46 0.0 0.0 0.00 0.00 0.00 90 1008.3
20260508104322 61 22 0.0 2.0 0.00 0.00 0.00 89 1008.3
20260508103321 61 21 1.0 4.0 0.00 0.00 0.00 89 1008.3
20260508102322 61 35 1.0 4.0 0.00 0.00 0.00 88 1008.3
20260508101322 60 27 3.0 5.0 0.00 0.00 0.00 87 1008.3
20260508100324 60 33 1.0 3.0 0.00 0.00 0.00 86 1008.3
20260508095323 61 35 2.0 4.0 0.00 0.00 0.00 87 1008.5
20260508093324 61 22 0.0 1.0 0.00 0.00 0.00 86 1008.7
20260508092321 61 360 1.0 2.0 0.00 0.00 0.00 86 1008.3
20260508091324 61 360 1.0 3.0 0.00 0.00 0.00 85 1008.2
20260508090321 60 45 2.0 4.0 0.00 0.00 0.00 84 1008.0
20260508085323 61 45 0.0 0.0 0.00 0.00 0.00 85 1008.3
20260508083323 61 45 0.0 0.0 0.00 0.00 0.00 85 1008.3
20260508082321 61 45 0.0 2.0 0.00 0.00 0.00 84 1008.3
20260508081325 61 67 0.0 3.0 0.00 0.00 0.00 84 1008.3
20260508080422 61 67 0.0 0.0 0.00 0.00 0.00 84 1008.3
20260508074421 61 22 0.0 2.0 0.00 0.00 0.00 84 1008.3
20260508073423 61 45 0.0 1.0 0.00 0.00 0.00 84 1008.3
20260508072423 61 27 2.0 5.0 0.00 0.00 0.00 84 1008.0
20260508070422 61 45 1.0 2.0 0.00 0.00 0.00 84 1008.3
20260508065426 61 1 0.0 3.0 0.00 0.00 0.00 84 1008.7